CW5554 Weather Reports


time (UTC)temp
F
wind
direction
speed
knots
gust
knots
rain 1hr
in
rain 24hr
in
rain mn
in
humidity
%
barometer
mb
20260510190453 52 38 4.3 13.9 0.00 0.00 0.00 62 1013.0
20260510185952 52 58 8.7 13.9 0.00 0.00 0.00 62 1012.9
20260510185451 52 34 12.2 13.9 0.00 0.00 0.00 62 1013.0
20260510184951 52 71 7.0 13.9 0.00 0.00 0.00 62 1013.0
20260510184453 53 33 10.4 13.9 0.00 0.00 0.00 62 1013.0
20260510183951 53 39 7.8 12.2 0.00 0.00 0.00 62 1013.0
20260510183452 53 67 5.2 12.2 0.00 0.00 0.00 62 1013.0
20260510182951 53 67 4.3 11.3 0.00 0.00 0.00 63 1013.0
20260510182452 53 19 1.7 11.3 0.00 0.00 0.00 63 1013.0
20260510180951 54 46 5.2 11.3 0.00 0.00 0.00 61 1013.1
20260510180452 54 51 6.1 13.0 0.00 0.00 0.00 61 1013.1
20260510175952 54 360 5.2 13.0 0.00 0.00 0.00 61 1013.2
20260510174951 54 26 8.7 13.9 0.00 0.00 0.00 62 1013.2
20260510174452 54 81 9.6 11.3 0.00 0.00 0.00 62 1013.2
20260510172451 54 36 1.7 12.2 0.00 0.00 0.00 63 1013.3
20260510171451 55 56 6.1 12.2 0.00 0.00 0.00 62 1013.4
20260510170953 55 61 5.2 12.2 0.00 0.00 0.00 63 1013.4
20260510170452 55 53 5.2 12.2 0.00 0.00 0.00 61 1013.5
20260510165951 56 80 3.5 16.5 0.00 0.00 0.00 62 1013.5
20260510165451 55 82 1.7 16.5 0.00 0.00 0.00 64 1013.6
20260510164951 55 65 2.6 12.2 0.00 0.00 0.00 62 1013.6
20260510164452 55 36 6.1 12.2 0.00 0.00 0.00 62 1013.7
20260510163951 55 59 2.6 13.0 0.00 0.00 0.00 62 1013.8
20260510163451 55 52 6.1 13.0 0.00 0.00 0.00 63 1013.8
20260510162952 55 44 13.0 16.5 0.00 0.00 0.00 64 1013.9
20260510161452 54 59 2.6 12.2 0.00 0.00 0.00 65 1013.9
20260510160952 54 90 7.0 12.2 0.00 0.00 0.00 64 1014.0
20260510160452 54 66 1.7 15.6 0.00 0.00 0.00 65 1014.1
20260510155952 54 53 4.3 15.6 0.00 0.00 0.00 65 1014.1
20260510155451 54 38 9.6 15.6 0.00 0.00 0.00 65 1014.2
20260510154951 54 75 11.3 13.0 0.00 0.00 0.00 66 1014.2
20260510154451 55 40 13.0 13.0 0.00 0.00 0.00 66 1014.3
20260510153952 54 68 4.3 11.3 0.00 0.00 0.00 66 1014.3
20260510153452 54 26 5.2 13.0 0.00 0.00 0.00 66 1014.4
20260510152952 54 69 7.8 13.0 0.00 0.00 0.00 67 1014.5
20260510152451 54 39 10.4 16.5 0.00 0.00 0.00 68 1014.5
20260510151951 54 45 2.6 16.5 0.00 0.00 0.00 67 1014.5
20260510150952 55 49 3.5 11.3 0.00 0.00 0.00 68 1014.6
20260510145952 55 80 2.6 12.2 0.00 0.00 0.00 67 1014.7
20260510145451 55 39 5.2 11.3 0.00 0.00 0.00 68 1014.8
20260510144951 55 20 7.0 11.3 0.00 0.00 0.00 69 1014.7
20260510144452 54 73 8.7 12.2 0.00 0.00 0.00 68 1014.8
20260510143952 54 36 6.1 12.2 0.00 0.00 0.00 68 1014.9
20260510143451 54 34 4.3 12.2 0.00 0.00 0.00 69 1015.0
20260510142952 54 70 8.7 13.0 0.00 0.00 0.00 70 1015.0
20260510142452 54 78 2.6 13.9 0.00 0.00 0.00 69 1015.1
20260510141952 54 11 4.3 13.9 0.00 0.00 0.00 69 1015.1
20260510141452 54 18 7.0 11.3 0.00 0.00 0.00 69 1015.1
20260510140953 54 47 6.1 11.3 0.00 0.00 0.00 70 1015.2
20260510140451 54 59 10.4 15.6 0.00 0.00 0.00 70 1015.2
20260510135951 54 24 11.3 15.6 0.00 0.00 0.00 69 1015.2
20260510135451 54 13 6.1 15.6 0.00 0.00 0.00 69 1015.2
20260510134953 54 80 6.1 14.8 0.00 0.00 0.00 70 1015.1
20260510134451 54 28 5.2 10.4 0.00 0.00 0.00 70 1015.2
20260510133452 54 42 1.7 11.3 0.00 0.00 0.00 71 1015.2
20260510132951 54 53 4.3 11.3 0.00 0.00 0.00 71 1015.3
20260510132451 54 62 5.2 13.9 0.00 0.00 0.00 71 1015.3
20260510131951 54 78 6.1 13.9 0.00 0.00 0.00 71 1015.4
20260510131451 54 57 7.8 12.2 0.00 0.00 0.00 72 1015.4
20260510130951 54 82 2.6 12.2 0.00 0.00 0.00 72 1015.4
20260510130451 53 55 6.1 12.2 0.00 0.00 0.00 73 1015.4
20260510125951 53 51 8.7 12.2 0.00 0.00 0.00 73 1015.4
20260510124451 53 45 7.8 11.3 0.00 0.00 0.00 73 1015.6
20260510123451 53 37 11.3 11.3 0.00 0.00 0.00 74 1015.7
20260510122953 53 55 5.2 13.0 0.00 0.00 0.00 73 1015.7
20260510122451 53 57 6.1 13.0 0.00 0.00 0.00 73 1015.7
20260510121951 53 55 9.6 14.8 0.00 0.00 0.00 74 1015.7
20260510121451 53 32 7.0 17.4 0.00 0.00 0.00 73 1015.7
20260510115451 55 10 6.1 14.8 0.00 0.00 0.00 72 1015.9
20260510114951 55 66 7.0 14.8 0.00 0.00 0.00 72 1015.8
20260510114451 55 46 10.4 14.8 0.00 0.00 0.00 73 1015.9
20260510113951 55 22 11.3 13.9 0.00 0.00 0.00 72 1015.9
20260510112451 55 67 7.8 14.8 0.00 0.00 0.00 72 1015.9
20260510111951 55 41 8.7 14.8 0.00 0.00 0.00 72 1016.0
20260510111451 55 60 3.5 14.8 0.00 0.00 0.00 72 1016.0
20260510110951 55 39 4.3 14.8 0.00 0.00 0.00 72 1016.2
20260510110451 55 55 7.8 12.2 0.00 0.00 0.00 71 1016.1
20260510105951 55 63 9.6 13.0 0.00 0.00 0.00 70 1016.2
20260510105451 55 56 4.3 13.0 0.00 0.00 0.00 71 1016.3
20260510104951 55 57 6.1 12.2 0.00 0.00 0.00 70 1016.3
20260510104451 55 69 7.8 14.8 0.00 0.00 0.00 70 1016.4
20260510103451 55 88 9.6 14.8 0.00 0.00 0.00 70 1016.4
20260510102951 55 65 7.8 13.9 0.00 0.00 0.00 70 1016.5
20260510102451 56 94 6.1 12.2 0.00 0.00 0.00 70 1016.5
20260510101951 56 37 10.4 12.2 0.00 0.00 0.00 68 1016.3
20260510101451 57 71 11.3 13.0 0.00 0.00 0.00 69 1016.4
20260510100951 56 80 2.6 13.0 0.00 0.00 0.00 70 1016.3
20260510095951 55 41 4.3 13.9 0.00 0.00 0.00 71 1016.4
20260510095451 56 46 10.4 13.0 0.00 0.00 0.00 69 1016.4
20260510094951 56 101 5.2 13.9 0.00 0.00 0.00 71 1016.4
20260510094451 56 15 7.8 15.6 0.00 0.00 0.00 69 1016.3
20260510093952 56 46 5.2 15.6 0.00 0.00 0.00 70 1016.4
20260510093451 55 63 12.2 13.0 0.00 0.00 0.00 72 1016.4
20260510092951 54 76 10.4 11.3 0.00 0.00 0.00 73 1016.4
20260510092451 54 53 7.8 11.3 0.00 0.00 0.00 73 1016.5
20260510091951 54 49 6.1 12.2 0.00 0.00 0.00 72 1016.5
20260510091451 54 65 10.4 13.0 0.00 0.00 0.00 73 1016.6
20260510090951 53 39 7.8 13.0 0.00 0.00 0.00 74 1016.6
20260510090451 53 62 7.8 13.9 0.00 0.00 0.00 75 1016.6
20260510085451 53 64 13.9 13.9 0.00 0.00 0.00 74 1016.9
20260510084951 53 86 3.5 11.3 0.00 0.00 0.00 74 1016.8
20260510084451 53 85 3.5 12.2 0.00 0.00 0.00 75 1016.9
20260510083951 53 34 10.4 16.5 0.00 0.00 0.00 74 1016.9
20260510083451 53 51 8.7 16.5 0.00 0.00 0.00 74 1016.9
20260510082951 53 80 4.3 16.5 0.00 0.00 0.00 74 1016.9
20260510082451 54 48 4.3 13.9 0.00 0.00 0.00 74 1016.9
20260510081951 54 42 3.5 13.9 0.00 0.00 0.00 75 1016.9
20260510081451 53 66 7.8 9.6 0.00 0.00 0.00 77 1017.0
20260510080951 52 24 8.7 12.2 0.00 0.00 0.00 78 1017.0
20260510080451 52 78 6.1 12.2 0.00 0.00 0.00 79 1017.0
20260510075951 51 32 8.7 13.0 0.00 0.00 0.00 80 1017.0
20260510075451 51 49 4.3 13.9 0.00 0.00 0.00 81 1017.0
20260510074951 50 51 11.3 13.9 0.00 0.00 0.00 85 1017.0
20260510073951 50 61 5.2 12.2 0.00 0.00 0.00 85 1017.0
20260510072451 49 60 8.7 13.0 0.00 0.00 0.00 86 1017.0
20260510071451 49 59 2.6 11.3 0.00 0.00 0.00 86 1017.0
20260510070951 48 51 3.5 14.8 0.00 0.00 0.00 87 1017.0
20260510070451 48 65 5.2 14.8 0.00 0.00 0.00 87 1016.9
20260510065951 48 38 3.5 10.4 0.00 0.00 0.00 87 1016.9
20260510065451 48 68 7.0 10.4 0.00 0.00 0.00 87 1016.8
20260510064951 48 49 2.6 11.3 0.00 0.00 0.00 87 1016.8
20260510064451 48 82 7.0 11.3 0.00 0.00 0.00 87 1016.8
20260510063951 48 39 2.6 10.4 0.00 0.00 0.00 87 1016.8
20260510063451 48 75 4.3 8.7 0.00 0.00 0.00 87 1016.8
20260510062950 48 69 2.6 8.7 0.00 0.00 0.00 87 1016.8
20260510062451 48 65 5.2 9.6 0.00 0.00 0.00 87 1016.8
20260510061951 48 74 2.6 9.6 0.00 0.00 0.00 87 1016.8
20260510060952 48 50 1.7 10.4 0.00 0.00 0.00 87 1016.7
20260510060451 48 27 8.7 11.3 0.00 0.00 0.00 87 1016.7
20260510055952 48 65 3.5 11.3 0.00 0.00 0.00 87 1016.6
20260510054451 48 58 0.9 10.4 0.00 0.00 0.00 87 1016.6
20260510053951 48 44 2.6 10.4 0.00 0.00 0.00 87 1016.6
20260510052951 48 64 2.6 13.0 0.00 0.00 0.00 87 1016.7
20260510052451 48 63 11.3 14.8 0.00 0.00 0.00 87 1016.7
20260510051951 48 59 1.7 14.8 0.00 0.00 0.00 87 1016.7
20260510051451 48 78 4.3 13.0 0.00 0.00 0.00 87 1016.7
20260510050951 48 30 7.8 13.0 0.00 0.00 0.00 87 1016.6
20260510050451 48 59 8.7 9.6 0.00 0.00 0.00 87 1016.7
20260510045951 48 52 4.3 13.0 0.00 0.00 0.00 87 1016.7
20260510044951 48 60 1.7 12.2 0.00 0.00 0.00 87 1016.7
20260510044451 48 360 5.2 12.2 0.00 0.00 0.00 87 1016.6
20260510043952 48 12 7.0 12.2 0.00 0.00 0.00 87 1016.6
20260510043451 48 18 7.0 12.2 0.00 0.00 0.00 87 1016.6
20260510042952 48 38 10.4 12.2 0.00 0.00 0.00 87 1016.6
20260510042451 48 43 1.7 10.4 0.00 0.00 0.00 87 1016.7
20260510041951 48 14 7.8 12.2 0.00 0.00 0.00 87 1016.6
20260510041451 48 44 4.3 12.2 0.00 0.00 0.00 87 1016.6
20260510040952 48 29 7.8 12.2 0.00 0.00 0.00 86 1016.6
20260510035451 48 30 5.2 12.2 0.00 0.00 0.00 86 1016.9
20260510034951 48 43 4.3 12.2 0.00 0.00 0.00 86 1016.9
20260510034451 48 33 4.3 11.3 0.00 0.00 0.00 86 1016.9
20260510033951 48 36 7.8 11.3 0.00 0.00 0.00 86 1016.8
20260510033451 48 62 8.7 10.4 0.00 0.00 0.00 86 1016.9
20260510032451 48 38 1.7 11.3 0.00 0.00 0.00 86 1017.0
20260510031951 48 21 3.5 11.3 0.00 0.00 0.00 86 1017.0
20260510030950 48 52 7.8 12.2 0.00 0.00 0.00 85 1017.0
20260510030450 48 42 3.5 10.4 0.00 0.00 0.00 85 1017.0
20260510025950 48 46 4.3 12.2 0.00 0.00 0.00 85 1017.0
20260510025450 48 46 10.4 12.2 0.00 0.00 0.00 85 1017.0
20260510024950 48 22 5.2 14.8 0.00 0.00 0.00 85 1016.9
20260510024451 48 42 7.8 14.8 0.00 0.00 0.00 85 1016.9
20260510023952 48 29 4.3 14.8 0.00 0.00 0.00 84 1016.9
20260510023450 48 31 4.3 13.0 0.00 0.00 0.00 84 1017.0
20260510022951 48 69 10.4 13.0 0.00 0.00 0.00 84 1016.9
20260510021951 49 46 4.3 13.9 0.00 0.00 0.00 83 1016.9
20260510021450 49 72 9.6 11.3 0.00 0.00 0.00 83 1016.9
20260510020951 49 51 8.7 13.0 0.00 0.00 0.00 83 1017.0
20260510020450 49 12 1.7 13.0 0.00 0.00 0.00 83 1017.0
20260510014951 49 49 2.6 13.0 0.00 0.00 0.00 82 1017.0
20260510014450 50 28 7.0 13.0 0.00 0.00 0.00 82 1017.1
20260510013451 50 32 3.5 11.3 0.00 0.00 0.00 81 1017.2
20260510012951 50 40 3.5 11.3 0.00 0.00 0.00 80 1017.3
20260510012450 50 17 9.6 10.4 0.00 0.00 0.00 80 1017.2
20260510011950 50 23 9.6 10.4 0.00 0.00 0.00 79 1017.2
20260510011450 50 28 5.2 10.4 0.00 0.00 0.00 79 1017.3
20260510010951 50 44 4.3 9.6 0.00 0.00 0.00 78 1017.3
20260510010451 51 62 2.6 9.6 0.00 0.00 0.00 77 1017.3
20260510005950 51 63 3.5 10.4 0.00 0.00 0.00 76 1017.2
20260510005451 51 22 7.0 11.3 0.00 0.00 0.00 75 1017.2
20260510004950 51 46 4.3 11.3 0.00 0.00 0.00 74 1017.1
20260510004450 51 37 9.6 11.3 0.00 0.00 0.00 74 1017.1
20260510003451 51 55 6.1 10.4 0.00 0.00 0.00 73 1017.1
20260510002950 52 24 2.6 12.2 0.00 0.00 0.00 72 1017.2
20260510001950 52 42 5.2 13.0 0.00 0.00 0.00 70 1017.2
20260510001452 52 63 11.3 13.0 0.00 0.00 0.00 69 1017.2
20260510000951 52 53 8.7 13.0 0.00 0.00 0.00 68 1017.2
20260510000450 52 30 8.7 11.3 0.00 0.00 0.00 67 1017.1
20260509235452 52 80 7.0 14.8 0.00 0.00 0.00 64 1017.0
20260509234950 53 35 5.2 14.8 0.00 0.00 0.00 63 1017.0
20260509233950 53 34 8.7 13.0 0.00 0.00 0.00 62 1017.0
20260509233452 53 55 4.3 13.0 0.00 0.00 0.00 63 1016.9
20260509232950 53 57 3.5 12.2 0.00 0.00 0.00 64 1016.9
20260509232450 53 55 5.2 12.2 0.00 0.00 0.00 64 1016.9
20260509231950 53 46 5.2 9.6 0.00 0.00 0.00 65 1016.9
20260509231450 53 57 6.1 9.6 0.00 0.00 0.00 65 1016.9
20260509230950 53 40 7.8 7.8 0.00 0.00 0.00 64 1016.8
20260509230450 53 26 1.7 6.1 0.00 0.00 0.00 64 1017.0
20260509225450 54 35 4.3 7.8 0.00 0.00 0.00 64 1016.8
20260509224950 54 56 2.6 7.8 0.00 0.00 0.00 64 1016.8
20260509224450 54 65 0.9 6.1 0.00 0.00 0.00 65 1016.8
20260509223450 54 21 0.9 6.1 0.00 0.00 0.00 66 1016.8
20260509222450 54 54 2.6 5.2 0.00 0.00 0.00 66 1016.8
20260509221950 54 55 0.9 3.5 0.00 0.00 0.00 66 1016.8
20260509221451 54 61 1.7 3.5 0.00 0.00 0.00 66 1016.7
20260509220950 54 64 0.9 3.5 0.00 0.00 0.00 66 1016.6
20260509220450 54 66 1.7 3.5 0.00 0.00 0.00 66 1016.7
20260509215950 54 63 1.7 3.5 0.00 0.00 0.00 66 1016.7
20260509215450 54 72 2.6 2.6 0.00 0.00 0.00 66 1016.6
20260509214950 55 68 0.9 2.6 0.00 0.00 0.00 65 1016.5
20260509214450 55 67 0.0 2.6 0.00 0.00 0.00 64 1016.6
20260509213950 56 67 0.9 3.5 0.00 0.00 0.00 63 1016.6
20260509212950 56 69 0.9 6.1 0.00 0.00 0.00 63 1016.6
20260509212450 56 85 1.7 2.6 0.00 0.00 0.00 63 1016.6
20260509211951 56 85 0.0 2.6 0.00 0.00 0.00 62 1016.5
20260509211450 57 87 0.9 1.7 0.00 0.00 0.00 61 1016.5
20260509210950 57 88 0.0 2.6 0.00 0.00 0.00 60 1016.4
20260509210450 58 88 0.0 2.6 0.00 0.00 0.00 59 1016.3
20260509205950 58 90 0.0 1.7 0.00 0.00 0.00 57 1016.2
20260509205450 59 88 0.0 4.3 0.00 0.00 0.00 56 1016.1
20260509204950 59 89 0.0 4.3 0.00 0.00 0.00 55 1016.1
20260509204450 59 79 1.7 1.7 0.00 0.00 0.00 56 1016.1
20260509202950 59 74 0.0 2.6 0.00 0.00 0.00 57 1015.9
20260509202450 60 75 0.9 2.6 0.00 0.00 0.00 57 1015.9
20260509201450 61 78 0.9 4.3 0.00 0.00 0.00 54 1015.8
20260509200950 61 88 1.7 4.3 0.00 0.00 0.00 53 1015.7
20260509200450 61 78 0.9 4.3 0.00 0.00 0.00 52 1015.7
20260509195950 62 78 0.9 7.0 0.00 0.00 0.00 52 1015.7
20260509194950 62 125 1.7 7.0 0.00 0.00 0.00 51 1015.5
20260509194450 62 85 0.0 5.2 0.00 0.00 0.00 51 1015.3
20260509193950 63 80 2.6 7.8 0.00 0.00 0.00 51 1015.3
20260509193450 63 92 1.7 7.8 0.00 0.00 0.00 51 1015.3
20260509192950 63 121 3.5 7.8 0.00 0.00 0.00 50 1015.2
20260509191950 64 77 4.3 4.3 0.00 0.00 0.00 51 1015.2
20260509191450 64 82 2.6 5.2 0.00 0.00 0.00 51 1015.2
20260509190950 64 95 1.7 5.2 0.00 0.00 0.00 52 1015.1